DateTime,Index
2000090118,0.0
2000090200,0.0
2000090206,0.0
2000090212,0.0
2000090218,1225.0
2000090300,1225.0
2000090306,2025.0
2000090312,2500.0
2000090318,3025.0
2000090400,4225.0
2000090406,4900.0
2000090412,6400.0
2000090418,8100.0
2000090500,8100.0
2000090506,4900.0
2000090512,3600.0
2000090518,3600.0
2000090600,3025.0
2000090606,3025.0
2000090612,3025.0
2000090618,3025.0
2000090700,3025.0
2000090706,3025.0
2000090712,3025.0
2000090718,3025.0
2000090800,4225.0
2000090806,5625.0
2000090812,5625.0
2000090818,7225.0
2000090900,8100.0
2000090906,8100.0
2000090912,10000.0
2000090918,14400.0
2000091000,14400.0
2000091006,14400.0
2000091012,19600.0
2000091018,19600.0
2000091100,16900.0
2000091106,15625.0
2000091112,13225.0
2000091118,12100.0
2000091200,12100.0
2000091206,10000.0
2000091212,9025.0
2000091218,8100.0
2000091300,8100.0
2000091306,8100.0
2000091312,7225.0
2000091318,7225.0
2000091400,8100.0
2000091406,8100.0
2000091412,8100.0
2000091418,7225.0
2000091500,5625.0
2000091506,4900.0
2000091512,4225.0
2000091518,4225.0
2000091600,3025.0
2000091606,2025.0
